Showing default

OT-FOREST-17 TELPERION, 68988

Orbit data source: Space-Track

OT-FOREST-17 TELPERION, 68988 is a German payload satellite in SSO that was launched on Sun, 03 May 2026 UTC via an FALCON 9 launch vehicle from the Air Force Western Test Range (AFWTR). Payload-class satellites include a variety of spacecraft equipped with specific instruments for various scientific and technological missions. These include communications satellites like Starlink; space stations such as the ISS; scientific satellites like the Hubble; Earth observation satellites from companies like Planet Labs, Umbra, and HawkEye 360; GPS; miniature CubeSats for education and research; and military/defense satellites.

Loading next visibility...
Identifier
68988, 2026-100J
Orbit
SSO
Country
Flag of DEDE / GER
Related business
Manufacturer
OroraTech
Mission
Operational spacecraft
Bus & Motor
CUBESAT 8U, Unknown motor
Mass
~15 kg wet, ~15 kg dry
Launch date (UTC)
2026-05-03 (2 months ago)
Launch vehicle
FALCON 9
Launch site
Air Force Western Test Range (AFWTR)
Object type
Payload
Rocket body
Debris
Shape & HBR
Unknown shape, 14.5 m
Radar Cross Section
Medium (>0.1 m² and <1 m²)

Expand to show TLE details & history
Last TLE update: 22 hours ago

TLE from 22 hours ago
0 OT-FOREST-17 TELPERION
1 68988U 26100J   26174.95328462  .00000825  00000-0  89538-4 0  9999
2 68988  97.7338  72.1889 0007591 121.8142 238.3817 14.90755986  7704
Epoch: 2026-06-23T22:52Z
TLE epoch observation values (Epoch: 2026-06-23T22:52:43.791Z)
Latitude
0.00006°
Longitude
176.88897°
Altitude
601.397 km
Speed
7.557 km/s
True Right ascension
04h 48m 45s
True Declination
0° 00' 00"
Sunlit
Object was in daylight at epoch
Visualization orbit readout
Latitude
Unknown
Longitude
Unknown
Altitude
Unknown
Speed
Unknown
Apparent Right ascension
Unknown
Apparent Declination
Unknown
Sunlit
N/A
Visualization observer readout
Local Sidereal Time
07:37:29
Azimuth
Unknown
Elevation
Unknown
Doppler factor
Unknown
Orbital elements
Apogee altitude
597.888 km
Perigee altitude
587.305 km
Semi-major axis
6,970.733 km
Eccentricity
0.00076
Inclination
97.7338°
RAAN
72.1889°
Arg. of periapsis
121.8142°
True anomaly
238.30766°
Mean anomaly
238.3817°
Eccentric anomaly
238.34468°
Mean motion
3.72928 °/min
Orbital period
96.53 mins
BSTAR
0.000089538
Loading maneuver chart data...
Computing Atmospheric mass density...
Loading historical data...
Loading historical data...
Loading historical data...
Loading historical data...
Loading historical data...
Loading historical data...
Loading historical data...

Documentation

Showing up to 5 results
|